Regional Weather Roundup
Issued by NWS

Home | Current Version | Previous Version | Graphics & Text | Print | Product List | Glossary On
Versions: 1 2 3 4 5 6 7 8 9 10 11 12 13 14 15 16 17 18 19 20 21 22 23 24 25 26 27 28 29 30 31 32 33 34 35 36 37 38 39 40 41 42 43 44 45 46 47 48 49 50
000
ASUS43 KLOT 162100
RWRIL

ILLINOIS REGIONAL WEATHER ROUNDUP
NATIONAL WEATHER SERVICE CHICAGO/ROMEOVILLE IL
400 PM CDT TUE SEP 16 2014

NOTE: "FAIR" INDICATES FEW OR NO CLOUDS BELOW 12,000 FEET WITH NO
SIGNIFICANT WEATHER AND/OR OBSTRUCTIONS TO VISIBILITY.

* THESE STATIONS ARE NOT UNDER NWS QUALITY CONTROL. THEY ALSO MAY NOT
  REPORT WEATHER SUCH AS PRECIPITATION OR FOG.

ILZ001-002-007-009-015-016-024-162200-
NORTHWEST ILLINOIS

CITY           SKY/WX    TMP DP  RH WIND       PRES   REMARKS
MOLINE         SUNNY     67  44  43 VRB5      30.13F
STERLING*      SUNNY     68  45  42 NW6       30.13S
$$

ILZ003-004-008-010-011-017-018-162200-
NORTH CENTRAL ILLINOIS

CITY           SKY/WX    TMP DP  RH WIND       PRES   REMARKS
ROCKFORD       SUNNY     65  41  41 W7        30.13F
FREEPORT*      SUNNY     63  42  47 SW6       30.15S
$$

ILZ005-006-012>014-019>023-162200-
NORTHEAST ILLINOIS

CITY           SKY/WX    TMP DP  RH WIND       PRES   REMARKS
CHICAGO-OHARE  SUNNY     68  40  35 NW6       30.11F
CHICAGO-MIDWAY MOSUNNY   68  42  38 NW7       30.11F
AURORA         SUNNY     67  40  37 W6        30.12F
WAUKEGAN       SUNNY     63  45  51 SE6       30.11F
DUPAGE AIRPORT SUNNY     67  41  38 W8        30.11F
WHEELING       SUNNY     67  40  37 W9        30.13F
NORTHERLY ISL    N/A     61  46  57 E7          N/A
$$

LMZ740>746-162200-
SOUTHERN LAKE MICHIGAN

STATION/POSITION SKY/WX   TEMP    WIND        PRES    VSBY  WAVE
                          AIR SEA DIR/SP/G                  HT/PER
                          (F)     (DEG/KT/KT) (MB)    (MI)  (FT/S)
SOUTHERN BUOY              58 65  300/  8/ 12 1021.0F         1/ 4
WAUKEGAN HARBOR            60     130/  6/  8   N/A
HARRISON CRIB              59      90/  7/  8   N/A
BURNHAM HARBOR             62      80/  6/  7   N/A
CALUMET HARBOR             60      70/  7/  9 1018.9F
MICHIGAN CITY              62     330/  7/  9   N/A
MICHIGAN CITY 6N           60 65   30/  4/  6   N/A           2/ 4
ST. JOSEPH                 60 67  290/  8/ 10   N/A           2/ 5
$$

ILZ025>027-034>036-040-047-049-050-058-095>099-162200-
WEST-CENTRAL ILLINOIS

CITY           SKY/WX    TMP DP  RH WIND       PRES   REMARKS
QUINCY         SUNNY     66  45  46 CALM      30.12F
GALESBURG*     SUNNY     72  47  39 CALM      30.12F
$$

ILZ028>032-037-038-041>044-048-051>054-059>061-162200-
CENTRAL ILLINOIS

CITY           SKY/WX    TMP DP  RH WIND       PRES   REMARKS
DECATUR        SUNNY     67  49  52 CALM      30.13F
PEORIA         SUNNY     69  44  40 CALM      30.13F
SPRINGFIELD    PTSUNNY   65  50  58 S3        30.13F
TAYLORVILLE    NOT AVBL
$$

ILZ033-039-045-046-055>057-062-063-162200-
EAST-CENTRAL ILLINOIS

CITY           SKY/WX    TMP DP  RH WIND       PRES   REMARKS
CHAMPAIGN      SUNNY     68  49  50 VRB3      30.13F
MATTOON        PTSUNNY   66  49  54 CALM      30.12F
$$

ILZ079-100>102-162200-
SOUTHWEST ILLINOIS

CITY           SKY/WX    TMP DP  RH WIND       PRES   REMARKS
BELLEVILLE     PTSUNNY   67  54  62 VRB2      30.12F
CAHOKIA*       CLOUDY    67  52  58 CALM      30.13F
$$

ILZ064>066-069>071-074>076-080>082-084>086-088>090-092>094-162200-
SOUTH-CENTRAL ILLINOIS

CITY           SKY/WX    TMP DP  RH WIND       PRES   REMARKS
CARBONDALE     CLOUDY    63  52  67 CALM      30.14F
MARION         CLOUDY    64  54  68 N7        30.14F
MT. VERNON     MOSUNNY   63  52  67 N3        30.14F
$$

ILZ067-068-072-073-078-083-087-091-162200-
SOUTHEAST ILLINOIS

CITY           SKY/WX    TMP DP  RH WIND       PRES   REMARKS
LAWRENCEVILLE  PTSUNNY   65  51  60 VRB5      30.14F
HARRISBURG*    CLOUDY    62  53  73 N5        30.14F
$$

ABBREVIATIONS USED IN REMARKS
   TC - TEMPERATURE IN CELSIUS
  WCI - WIND CHILL INDEX
   HX - HEAT INDEX
  VSB - VISIBILITY
$$



USA.gov is the U.S. government's official web portal to all federal, state and local government web resources and services.